Regional Weather Roundup
Issued by NWS

Home | Current Version | Previous Version | Text Only | Print | Product List | Glossary On
Versions: 1 2 3 4 5 6 7 8 9 10 11 12 13 14 15 16 17 18 19 20 21 22 23 24 25 26 27 28 29 30 31 32 33 34 35 36 37 38 39 40 41 42 43 44 45 46 47 48 49 50
000
ASUS43 KTOP 081059
RWRKS

WEATHER ROUNDUP FOR KANSAS
NATIONAL WEATHER SERVICE GOODLAND KS
500 AM CST THU DEC 08 2016

NOTE:  "FAIR" INDICATES FEW OR NO CLOUDS BELOW 12,000 FEET WITH NO
SIGNIFICANT WEATHER AND/OR OBSTRUCTIONS TO VISIBILITY.

KSZ001>006-013>018-027>032-041>047-081200-
NORTHWEST KANSAS

CITY           SKY/WX    TMP DP  RH WIND       PRES   REMARKS
GOODLAND       CLOUDY    -4 -10  75 W12       30.52S WCI -22
HILL CITY      CLEAR      3  -3  76 W9        30.62R
RUSSELL        CLEAR      9   3  77 NW13      30.60S WCI  -7
$$

KSZ061>065-074>080-084>089-081200-
SOUTHWEST KANSAS

CITY           SKY/WX    TMP DP  RH WIND       PRES   REMARKS
DODGE CITY     CLEAR      3  -1  83 NW8       30.58S
ELKHART          N/A     11  -2  56 N5          N/A
GARDEN CITY    CLOUDY     2  -4  76 N6        30.56S
GREAT BEND     CLEAR     11   5  77 NW12      30.62R WCI  -3
LIBERAL        CLEAR     10   1  67 NW6       30.56R
$$

KSZ066>073-081>083-090>101-081200-
SOUTHEAST KANSAS

CITY           SKY/WX    TMP DP  RH WIND       PRES   REMARKS
CHANUTE        PTCLDY    17  10  74 NW9       30.57R
COFFEYVILLE    PTCLDY    19  12  74 NW6       30.61R
HUTCHINSON     CLEAR     15   6  67 NW9       30.61R
NEWTON         CLEAR     15   6  67 NW12      30.59R WCI   2
PARSONS        PTCLDY    18  11  74 NW10      30.59R WCI   6
WICHITA INTL   CLEAR     18   7  62 N14       30.60S WCI   4
WICHITA JABRA  CLEAR     15   8  73 NW12      30.59S WCI   2
WINFIELD       CLEAR     17  10  74 N8        30.61R
$$

KSZ007>012-019>026-033>040-048>060-102>105-081200-
NORTHEAST KANSAS

CITY           SKY/WX    TMP DP  RH WIND       PRES   REMARKS
CONCORDIA      CLEAR     10   4  76 NW12      30.59R WCI  -5
EMPORIA        CLEAR     14   7  73 NW9       30.57R
LAWRENCE       CLEAR     16   8  71 NW14      30.56S WCI   2
MANHATTAN      CLEAR     16   5  62 NW7       30.60S
OLATHE IND     CLEAR     16   7  67 NW14      30.53R WCI   2
OLATHE EXE     CLEAR     15   6  67 NW9G18    30.52R
SALINA         CLEAR     14   6  70 NW14      30.62S WCI  -1
TOPEKA BILLARD CLEAR     16   7  67 W9        30.58R
TOPEKA FORBES  CLEAR     17   6  62 NW15      30.55S WCI   2
$$




USA.gov is the U.S. government's official web portal to all federal, state and local government web resources and services.